�������l�o���
Date,Time,MP-1(��Sv/h),MP-2(��Sv/h),MP-3(��Sv/h),MP-4(��Sv/h),MP-5(��Sv/h),MP-6(��Sv/h),MP-7(��Sv/h),MP-8(��Sv/h),����,����(m/s),���J
2024/01/22,00:00,0.490,0.716,0.464,0.924,0.624,0.304,0.542,0.511,�k�k��,11.3,��
2024/01/22,00:10,0.488,0.714,0.463,0.926,0.625,0.305,0.542,0.511,�k��,11.8,��
2024/01/22,00:20,0.490,0.713,0.464,0.926,0.624,0.305,0.542,0.510,�k�k��,10.7,�L
2024/01/22,00:30,0.491,0.714,0.464,0.925,0.625,0.304,0.543,0.511,�k��,10.3,�L
2024/01/22,00:40,0.489,0.713,0.463,0.926,0.623,0.305,0.542,0.511,�k�k��,11.6,�L
2024/01/22,00:50,0.489,0.716,0.465,0.924,0.625,0.305,0.543,0.511,�k�k��,11.8,��
2024/01/22,01:00,0.489,0.718,0.463,0.926,0.625,0.305,0.543,0.513,�k�k��,10.0,�L
2024/01/22,01:10,0.489,0.716,0.464,0.927,0.627,0.304,0.543,0.512,�k�k��,10.9,��
2024/01/22,01:20,0.492,0.719,0.464,0.924,0.626,0.305,0.541,0.512,�k�k��,10.2,�L
2024/01/22,01:30,0.489,0.718,0.464,0.925,0.629,0.305,0.544,0.512,�k��,9.2,��
2024/01/22,01:40,0.492,0.721,0.465,0.928,0.627,0.305,0.543,0.513,�k�k��,10.9,��
2024/01/22,01:50,0.490,0.720,0.465,0.929,0.630,0.305,0.544,0.511,�k�k��,10.2,��
2024/01/22,02:00,0.491,0.719,0.464,0.926,0.631,0.304,0.543,0.512,�k,6.9,�L
2024/01/22,02:10,0.491,0.720,0.465,0.927,0.630,0.304,0.542,0.512,�k�k��,7.2,�L
2024/01/22,02:20,0.490,0.717,0.465,0.927,0.628,0.305,0.542,0.512,�k�k��,7.8,�L
2024/01/22,02:30,0.487,0.710,0.463,0.922,0.623,0.305,0.540,0.511,�k�k��,9.4,�L
2024/01/22,02:40,0.483,0.706,0.461,0.914,0.621,0.304,0.539,0.509,�k�k��,6.8,�L
2024/01/22,02:50,0.483,0.708,0.463,0.913,0.620,0.305,0.540,0.509,�k�k��,8.6,�L
2024/01/22,03:00,0.480,0.705,0.460,0.913,0.621,0.304,0.538,0.509,�k�k��,7.8,�L
2024/01/22,03:10,0.480,0.706,0.460,0.910,0.618,0.303,0.537,0.509,�k�k��,9.5,�L
2024/01/22,03:20,0.481,0.706,0.461,0.912,0.622,0.304,0.538,0.510,�k�k��,7.6,�L
2024/01/22,03:30,0.482,0.706,0.460,0.910,0.622,0.304,0.539,0.507,�k�k��,7.5,�L
2024/01/22,03:40,0.484,0.706,0.461,0.911,0.620,0.303,0.538,0.507,�k�k��,9.5,�L
2024/01/22,03:50,0.481,0.706,0.461,0.912,0.622,0.305,0.539,0.509,�k�k��,7.7,�L
2024/01/22,04:00,0.485,0.708,0.461,0.914,0.622,0.303,0.541,0.508,�k�k��,8.5,�L
2024/01/22,04:10,0.483,0.707,0.461,0.916,0.624,0.304,0.539,0.507,�k�k��,8.1,�L
2024/01/22,04:20,0.481,0.706,0.462,0.912,0.620,0.305,0.539,0.508,�k�k��,8.7,�L
2024/01/22,04:30,0.483,0.707,0.460,0.914,0.624,0.305,0.540,0.508,�k��,7.2,�L
2024/01/22,04:40,0.481,0.706,0.461,0.914,0.624,0.303,0.539,0.507,�k�k��,8.1,�L
2024/01/22,04:50,0.483,0.707,0.462,0.913,0.622,0.303,0.541,0.509,�k��,7.4,�L
2024/01/22,05:00,0.484,0.708,0.462,0.914,0.625,0.303,0.540,0.507,�k��,8.7,�L
2024/01/22,05:10,0.484,0.711,0.462,0.914,0.625,0.304,0.539,0.509,�k�k��,7.8,�L
2024/01/22,05:20,0.484,0.710,0.463,0.914,0.625,0.304,0.540,0.510,�k�k��,8.3,�L
2024/01/22,05:30,0.483,0.712,0.462,0.918,0.627,0.304,0.539,0.509,�k�k��,7.7,��
2024/01/22,05:40,0.486,0.710,0.462,0.919,0.628,0.303,0.541,0.509,�k�k��,6.5,�L
2024/01/22,05:50,0.486,0.712,0.461,0.916,0.626,0.304,0.542,0.511,�k�k��,8.3,�L
2024/01/22,06:00,0.485,0.712,0.463,0.918,0.627,0.304,0.542,0.511,�k�k��,7.3,��
2024/01/22,06:10,0.486,0.712,0.464,0.918,0.627,0.304,0.543,0.509,�k��,6.8,�L
2024/01/22,06:20,0.486,0.715,0.464,0.920,0.629,0.304,0.540,0.510,�k��,7.7,�L
2024/01/22,06:30,0.486,0.713,0.464,0.921,0.629,0.304,0.543,0.508,�k��,7.8,�L
2024/01/22,06:40,0.486,0.713,0.463,0.919,0.628,0.305,0.541,0.512,�k�k��,8.9,�L
2024/01/22,06:50,0.486,0.714,0.464,0.919,0.629,0.305,0.540,0.510,�k��,9.1,�L
2024/01/22,07:00,0.485,0.715,0.463,0.917,0.630,0.305,0.542,0.512,�k��,7.4,�L
2024/01/22,07:10,0.487,0.714,0.463,0.920,0.630,0.303,0.543,0.510,�k�k��,8.0,�L
2024/01/22,07:20,0.485,0.715,0.464,0.919,0.629,0.303,0.543,0.510,�k�k��,8.2,�L
2024/01/22,07:30,0.486,0.713,0.461,0.919,0.630,0.305,0.542,0.508,�k��,8.2,�L
2024/01/22,07:40,0.485,0.716,0.463,0.919,0.628,0.303,0.542,0.510,�k�k��,7.7,�L
2024/01/22,07:50,0.486,0.713,0.462,0.921,0.629,0.304,0.543,0.510,�k��,8.3,�L
2024/01/22,08:00,0.486,0.715,0.462,0.922,0.630,0.303,0.543,0.511,�k�k��,7.2,�L
2024/01/22,08:10,0.487,0.712,0.462,0.920,0.630,0.303,0.543,0.511,�k�k��,7.6,�L
2024/01/22,08:20,0.487,0.715,0.462,0.920,0.630,0.306,0.543,0.510,�k�k��,7.0,�L
2024/01/22,08:30,0.486,0.717,0.463,0.920,0.631,0.304,0.543,0.511,�k�k��,6.9,�L
2024/01/22,08:40,0.486,0.715,0.463,0.923,0.630,0.303,0.544,0.511,�k��,6.8,�L
2024/01/22,08:50,0.487,0.717,0.461,0.923,0.631,0.304,0.544,0.512,�k��,7.4,��
2024/01/22,09:00,0.488,0.715,0.463,0.921,0.632,0.304,0.544,0.510,�k�k��,6.9,��
2024/01/22,09:10,0.485,0.718,0.463,0.923,0.631,0.305,0.544,0.512,�k�k��,6.3,�L
2024/01/22,09:20,0.487,0.718,0.464,0.923,0.632,0.304,0.544,0.511,�k�k��,6.4,�L
2024/01/22,09:30,0.486,0.715,0.463,0.923,0.634,0.304,0.543,0.511,�k��,6.0,�L
2024/01/22,09:40,0.489,0.719,0.464,0.923,0.634,0.304,0.542,0.511,�k��,5.9,�L
2024/01/22,09:50,0.487,0.721,0.463,0.921,0.635,0.304,0.543,0.512,�k�k��,5.3,�L
2024/01/22,10:00,0.487,0.718,0.464,0.921,0.634,0.305,0.543,0.511,�k�k��,4.3,�L
2024/01/22,10:10,0.486,0.719,0.462,0.925,0.635,0.304,0.542,0.510,�k�k��,5.6,�L
2024/01/22,10:20,0.487,0.720,0.463,0.923,0.635,0.306,0.542,0.513,�k�k��,4.9,�L
2024/01/22,10:30,0.487,0.720,0.465,0.922,0.634,0.304,0.542,0.511,�k�k��,5.3,�L
2024/01/22,10:40,0.488,0.720,0.463,0.923,0.635,0.304,0.543,0.513,�k�k��,5.3,�L
2024/01/22,10:50,0.487,0.721,0.464,0.925,0.636,0.304,0.542,0.511,�k�k��,5.1,�L
2024/01/22,11:00,0.489,0.719,0.466,0.924,0.636,0.306,0.541,0.511,�k�k��,5.6,�L
2024/01/22,11:10,0.489,0.721,0.465,0.925,0.635,0.306,0.543,0.513,�k�k��,5.0,�L
2024/01/22,11:20,0.487,0.719,0.465,0.924,0.636,0.306,0.542,0.513,�k��,5.6,�L
2024/01/22,11:30,0.489,0.721,0.466,0.924,0.636,0.306,0.543,0.512,�k�k��,4.0,�L
2024/01/22,11:40,0.488,0.720,0.465,0.925,0.635,0.305,0.542,0.512,�k�k��,5.6,�L
2024/01/22,11:50,0.490,0.719,0.465,0.924,0.635,0.305,0.542,0.512,�k��,5.1,�L
2024/01/22,12:00,0.487,0.719,0.465,0.925,0.636,0.306,0.543,0.511,�k��,4.2,�L
2024/01/22,12:10,0.490,0.722,0.466,0.926,0.637,0.307,0.542,0.512,�k�k��,3.6,�L
2024/01/22,12:20,0.488,0.720,0.466,0.923,0.637,0.307,0.542,0.513,�k�k��,3.7,�L
2024/01/22,12:30,0.490,0.720,0.467,0.922,0.638,0.305,0.542,0.512,�k,3.9,�L
2024/01/22,12:40,0.489,0.721,0.465,0.926,0.638,0.306,0.543,0.512,�k�k��,4.8,��
2024/01/22,12:50,0.487,0.721,0.468,0.923,0.637,0.306,0.544,0.512,�k�k��,3.4,��
2024/01/22,13:00,0.488,0.720,0.465,0.925,0.638,0.306,0.542,0.512,�k�k��,3.4,��
2024/01/22,13:10,0.490,0.720,0.466,0.923,0.639,0.305,0.544,0.513,�k�k��,3.3,��
2024/01/22,13:20,0.489,0.720,0.466,0.922,0.639,0.306,0.543,0.512,�k�k��,3.4,��
2024/01/22,13:30,0.492,0.720,0.468,0.924,0.639,0.305,0.543,0.512,�k�k��,3.4,��
2024/01/22,13:40,0.488,0.720,0.467,0.925,0.638,0.306,0.543,0.512,�k�k��,2.3,��
2024/01/22,13:50,0.489,0.721,0.466,0.924,0.638,0.305,0.543,0.510,�k�k��,2.8,��
2024/01/22,14:00,0.488,0.719,0.467,0.925,0.638,0.306,0.542,0.511,�k�k��,4.0,�L
2024/01/22,14:10,0.489,0.719,0.466,0.924,0.637,0.306,0.543,0.510,�k,3.4,�L
2024/01/22,14:20,0.490,0.722,0.466,0.925,0.638,0.305,0.545,0.511,�k,2.9,��
2024/01/22,14:30,0.490,0.720,0.466,0.924,0.638,0.306,0.543,0.511,�k�k��,3.0,��
2024/01/22,14:40,0.491,0.720,0.467,0.926,0.640,0.306,0.544,0.513,�k�k��,2.6,��
2024/01/22,14:50,0.489,0.721,0.468,0.925,0.640,0.306,0.543,0.512,�k�k��,2.6,��
2024/01/22,15:00,0.491,0.721,0.466,0.925,0.638,0.305,0.543,0.511,�k,1.7,�L
2024/01/22,15:10,0.491,0.726,0.468,0.924,0.642,0.306,0.543,0.514,�k�k��,1.7,�L
2024/01/22,15:20,0.490,0.725,0.467,0.926,0.640,0.307,0.545,0.514,�k��,3.3,�L
2024/01/22,15:30,0.491,0.727,0.468,0.927,0.641,0.306,0.544,0.514,�k�k��,3.0,�L
2024/01/22,15:40,0.491,0.726,0.468,0.926,0.642,0.306,0.544,0.513,�k�k��,2.3,�L
2024/01/22,15:50,0.494,0.727,0.469,0.926,0.642,0.308,0.546,0.514,�k�k��,2.2,�L
2024/01/22,16:00,0.492,0.727,0.467,0.927,0.642,0.309,0.544,0.515,�k�k��,2.8,�L
2024/01/22,16:10,0.492,0.728,0.469,0.926,0.644,0.309,0.544,0.514,�k�k��,3.6,�L
2024/01/22,16:20,0.493,0.724,0.468,0.928,0.643,0.309,0.544,0.511,�k�k��,3.6,�L
2024/01/22,16:30,0.492,0.723,0.467,0.927,0.642,0.307,0.544,0.512,�k�k��,3.3,�L
2024/01/22,16:40,0.491,0.727,0.467,0.927,0.641,0.307,0.543,0.512,�k�k��,2.9,�L
2024/01/22,16:50,0.492,0.725,0.466,0.925,0.642,0.307,0.544,0.513,�k�k��,2.3,�L
2024/01/22,17:00,0.492,0.726,0.467,0.929,0.640,0.307,0.544,0.513,�k�k��,3.6,�L
2024/01/22,17:10,0.491,0.727,0.468,0.925,0.640,0.306,0.544,0.512,�k�k��,3.7,�L
2024/01/22,17:20,0.491,0.726,0.469,0.925,0.641,0.306,0.545,0.513,�k�k��,3.5,�L
2024/01/22,17:30,0.490,0.724,0.467,0.928,0.639,0.306,0.546,0.513,�k�k��,3.0,�L
2024/01/22,17:40,0.489,0.722,0.467,0.926,0.639,0.308,0.545,0.513,�k�k��,2.8,�L
2024/01/22,17:50,0.491,0.724,0.467,0.923,0.638,0.307,0.545,0.512,�k��,3.0,�L
2024/01/22,18:00,0.490,0.725,0.466,0.924,0.638,0.308,0.544,0.512,�k��,3.1,�L
2024/01/22,18:10,0.489,0.721,0.467,0.926,0.639,0.308,0.544,0.512,�k��,3.1,�L
2024/01/22,18:20,0.489,0.722,0.468,0.924,0.638,0.307,0.544,0.512,�k��,2.8,�L
2024/01/22,18:30,0.491,0.723,0.467,0.926,0.640,0.307,0.543,0.512,�k��,2.6,�L
2024/01/22,18:40,0.488,0.723,0.467,0.924,0.641,0.307,0.543,0.511,���k��,1.4,�L
2024/01/22,18:50,0.488,0.722,0.465,0.924,0.638,0.306,0.543,0.513,��,1.2,�L
2024/01/22,19:00,0.488,0.722,0.465,0.922,0.639,0.306,0.545,0.512,���쐼,1.5,�L
2024/01/22,19:10,0.488,0.723,0.464,0.923,0.637,0.307,0.544,0.512,��,2.3,�L
2024/01/22,19:20,0.486,0.722,0.466,0.922,0.636,0.307,0.542,0.511,���쐼,3.0,�L
2024/01/22,19:30,0.486,0.721,0.464,0.922,0.636,0.307,0.543,0.511,���쐼,2.5,�L
2024/01/22,19:40,0.487,0.721,0.465,0.922,0.638,0.306,0.544,0.512,�쐼,1.5,��
2024/01/22,19:50,0.487,0.720,0.464,0.922,0.637,0.306,0.542,0.511,�쐼,3.2,�L
2024/01/22,20:00,0.486,0.721,0.464,0.922,0.642,0.306,0.542,0.512,�쐼,3.1,��
2024/01/22,20:10,0.488,0.721,0.465,0.921,0.639,0.306,0.540,0.511,�쐼,2.9,��
2024/01/22,20:20,0.488,0.720,0.466,0.921,0.637,0.306,0.541,0.512,��쐼,1.9,��
2024/01/22,20:30,0.488,0.722,0.466,0.920,0.638,0.305,0.541,0.511,��쐼,2.0,��
2024/01/22,20:40,0.487,0.723,0.466,0.921,0.638,0.305,0.544,0.512,��쐼,1.9,��
2024/01/22,20:50,0.486,0.720,0.464,0.921,0.638,0.307,0.543,0.511,��쐼,3.4,��
2024/01/22,21:00,0.487,0.722,0.465,0.923,0.639,0.306,0.543,0.512,��,3.9,��
2024/01/22,21:10,0.488,0.721,0.466,0.924,0.641,0.307,0.542,0.512,��,3.9,��
2024/01/22,21:20,0.489,0.722,0.465,0.923,0.639,0.306,0.543,0.510,��,4.5,��
2024/01/22,21:30,0.488,0.723,0.466,0.922,0.641,0.306,0.544,0.512,��쓌,3.4,��
2024/01/22,21:40,0.487,0.723,0.465,0.923,0.641,0.307,0.545,0.513,��쓌,3.0,��
2024/01/22,21:50,0.489,0.723,0.466,0.922,0.641,0.306,0.544,0.514,��쓌,4.4,��
2024/01/22,22:00,0.488,0.725,0.465,0.924,0.640,0.305,0.544,0.512,��쓌,5.8,��
2024/01/22,22:10,0.488,0.726,0.467,0.924,0.639,0.306,0.542,0.512,��,5.7,��
2024/01/22,22:20,0.488,0.726,0.466,0.924,0.640,0.307,0.543,0.512,��,5.3,��
2024/01/22,22:30,0.488,0.722,0.467,0.925,0.640,0.305,0.544,0.512,��,4.4,��
2024/01/22,22:40,0.487,0.725,0.466,0.923,0.639,0.306,0.543,0.512,��쐼,3.7,��
2024/01/22,22:50,0.488,0.725,0.467,0.923,0.640,0.307,0.544,0.512,��쐼,3.6,��
2024/01/22,23:00,0.488,0.726,0.465,0.925,0.641,0.307,0.545,0.513,��쐼,4.3,��
2024/01/22,23:10,0.488,0.726,0.467,0.923,0.639,0.307,0.544,0.512,��쐼,5.9,��
2024/01/22,23:20,0.490,0.724,0.466,0.923,0.642,0.307,0.545,0.512,��쐼,7.1,��
2024/01/22,23:30,0.490,0.725,0.468,0.922,0.642,0.306,0.543,0.513,��쐼,7.1,��
2024/01/22,23:40,0.488,0.727,0.467,0.923,0.640,0.306,0.546,0.513,��쐼,7.6,��
2024/01/22,23:50,0.488,0.728,0.467,0.924,0.641,0.307,0.544,0.512,��쐼,7.6,��
